TOURFACTS.DK  
Stats and Facts from Tour de France.

Tour de France 2018 starts in 12 days
  Riders   Stages   Teams   Summits   Yearly  


 
Search by year

After 2017 - Stage 21:
 14824 starters.
  5132 different riders.
  639 teams.
  2232 stages.
  456 restdays.
  439589.60 km.
  5653 abandonnees.


Top 3
GC
Christopher Froome86:20:55
Rigoberto Urán86:21:49
Romain Bardet86:23:15
Climb
Warren Barguil169 pt.
Primoz Roglic80 pt.
Thomas De Gendt64 pt.
Sprint
Michael Matthews359 pt.
André Greipel234 pt.
Edvald Boasson Hagen220 pt.
Youth
Simon Yates86:27:09
Louis Meintjes86:29:15
Emanuel Buchmann86:54:16
Facts from Tour de France 1949
  |   Stages.  |   Stage winners.  |   Days in yellow  |   Average speed.  |   Route.  |   Teams.  |   All riders.  |   Rookies.  |  

  |   Withdrawls.  |   GC.  |   Polka  |   Green  |   White  |   Summits. (In tour)  |   Miscellaneous.  |  

Stage 20 on 23 - 07 - 1949
         Owning:    Fausto Coppi    
Pick a stage:  1 2 3 4 5 6 7 8 9 10 11 12 13 14 15 16 17 18 19 20 21
  ColmarNancy | Dist: 137.00 km.
Cat: 3Col du BonhommeITAFausto Coppi
3 points
 

Average speed for all riders in stage:  33,977 km./hr.
    Place:Name:Team:Time:Km/h:
ITAFausto CoppiITAItaly03:38:50  +  00:00:00=37,563 
ITAGino BartaliITAItaly03:45:52  +  00:07:02=36,393 
LUXJean GoldschmitLUXLuxembourg03:47:30  +  00:08:40=36,132 
4 FRAJacques MarinelliFRAIle De France03:50:05  +  00:11:15=35,726 
5 ITANello LaurediFRASouth-East03:50:43  +  00:11:53=35,628 
6 ITAVittorio MagniITACadetti Italiens03:51:38  +  00:12:48=35,487 
7 FRAJean RobicFRAWest-North03:51:58  +  00:13:08=35,436 
8 ITAGino SciardisITAItaly03:52:07  +  00:13:17=35,413 
9 BELMarcel DupontBELAiglons Belges03:52:11  +  00:13:21=35,403 
10 ITAGuido De SantiITAItaly03:52:48  +  00:13:58=35,309 
11 BELRoger LambrechtBELBelgium03:53:21  +  00:14:31=35,226 
12 BELMarcel De MulderBELAiglons Belges03:54:15  +  00:15:25=35,091 
13 FRARoger LevequeFRACenter-South West03:54:29  +  00:15:39=35,056 
14 LUXJean KirchenLUXLuxembourg03:55:08  +  00:16:18=34,959 
15 ITABruno PasquiniITAItaly03:55:51  +  00:17:01=34,853 
16 ITASerifano BiagioniITAItaly03:57:10  +  00:18:20=34,659 
17 FRAPierre CoganFRAWest-North03:57:37  +  00:18:47=34,594 
18 SUIGeorges AeschlimannCHESwitzerland03:57:53  +  00:19:03=34,555 
19 FRAJean-Marie GoasmatFRAWest-North03:58:15  +  00:19:25=34,502 
20 BELBriek SchotteBELBelgium03:58:28  +  00:19:38=34,470 
21 ITAGiuseppe AusendaITACadetti Italiens03:58:36  +  00:19:46=34,451 
22 FRAJean-Apotre LazaridesFRAFrance03:58:48  +  00:19:58=34,422 
23 FRALucien TeisseireFRAFrance04:00:27  +  00:21:37=34,186 
24 FRAJean BlancFRACenter-South West04:00:34  +  00:21:44=34,169 
25 ITAGiovanni CorrieriITAItaly04:00:51  +  00:22:01=34,129 
26 FRARaphaël GeminianiFRAFrance04:00:53  +  00:22:03=34,124 
27 FRAEdouard MullerFRAIle De France04:01:33  +  00:22:43=34,030 
28 LUXJean DiederichLUXLuxembourg04:02:08  +  00:23:18=33,948 
29 FRARobert ChapatteFRAFrance04:02:40  +  00:23:50=33,874 
30 BELStan OckersBELBelgium04:02:52  +  00:24:02=33,846 
31 FRAPaul PineauFRACenter-South West04:02:52  +  00:24:02=33,846 
32 ITAMario RicciITAItaly04:03:01  +  00:24:11=33,825 
33 BELMarcel HendrickxBELAiglons Belges04:03:02  +  00:24:12=33,823 
34 FRAGeorges RamouluxFRACenter-South West04:03:10  +  00:24:20=33,804 
35 ITALuciano PezziITAItaly04:03:42  +  00:24:52=33,730 
36 ITAGiuseppe TaccaFRAIle De France04:03:52  +  00:25:02=33,707 
37 FRALouis DeprezFRAFrance04:03:58  +  00:25:08=33,693 
38 BELFlorent MathieuBELBelgium04:04:00  +  00:25:10=33,689 
39 ITAVincenzo RosselloITAItaly04:04:01  +  00:25:11=33,686 
40 FRAAndré BruléFRAIle De France04:04:16  +  00:25:26=33,652 
41 FRAGeorges MartinFRASouth-East04:05:10  +  00:26:20=33,528 
42 BELJacques GeusBELAiglons Belges04:05:15  +  00:26:25=33,517 
43 FRAAlbert DolhatsFRACenter-South West04:06:22  +  00:27:32=33,365 
44 SUIPierre BrambillaFRASouth-East04:07:09  +  00:28:19=33,259 
45 FRAAntonin RollandFRASouth-East04:08:22  +  00:29:32=33,096 
46 SUIGottfried WeilenmannCHESwitzerland04:08:22  +  00:29:32=33,096 
47 ITAAngelo BrignoleITAItaly04:09:19  +  00:30:29=32,970 
48 FRARené ViettoFRAFrance04:09:20  +  00:30:30=32,968 
49 BELRik Van SteenbergenBELBelgium04:10:25  +  00:31:35=32,825 
50 FRAPaul GiguetFRASouth-East04:11:02  +  00:32:12=32,745 
51 FRAAndre MahéFRAWest-North04:11:35  +  00:32:45=32,673 
52 BELDésiré KeteleerBELBelgium04:12:11  +  00:33:21=32,595 
53 MARCustodio Dos ReisFRACenter-South West04:21:19  +  00:42:29=31,456 
54 FRALucien LazaridesFRAFrance04:24:47  +  00:45:57=31,044 
55 ITAEttore MilanoITAItaly04:53:58  +  01:15:08=27,962 


Todays birthdays.

1875  Jules Sales
1888  Leon Lannoy
1922  Henri Surbatis
1932  Ferdinand Devèze
1939  Dieter Puschel
1961  Gerhard Zadrobilek
1964  Javier Duch
1965  Clarence Knickman
1968  Michael Sandstød
1986  Simon Spilak




Visits: